Christchurch, New Zealand

10:11 AM NZDT on March 26, 2017 (GMT +1300)
Christchurch International

Weather History for NZCH - May, 2013

Change the Weather History Date:

Friday, May 17, 2013

  Actual Average Record
Temperature  
Mean Temperature 52 °F -  
Max Temperature 60 °F 56 °F 68 °F (2007)
Min Temperature 44 °F 38 °F 30 °F (1997)
Degree Days  
Heating Degree Days 13    
Growing Degree Days 2 (Base 50)    
Moisture  
Dew Point 49 °F    
Average Humidity 88    
Maximum Humidity 100    
Minimum Humidity 67    
Precipitation  
Precipitation 0.00 in - - ()
Sea Level Pressure  
Sea Level Pressure 29.77 in    
Wind  
Wind Speed 4 mph ()    
Max Wind Speed 12 mph    
Max Gust Speed -    
Visibility 5.8 miles    
Events Fog , Rain    
Averages and records for this station are not official NWS values.
T = Trace of Precipitation, MM = Missing Value Source: Averaged Metar Reports

Daily Weather History Graph

Daily Weather History Graph

Search for Another Location

Airport or City:

Trip Planner

Search our weather history database for the weather conditions in past years. The results will help you decide how hot, cold, wet, or windy it might be!

Date:

Astronomy

May. 17, 2013 Rise Set
Actual Time 7:38 AM NZST 5:13 PM NZST
Civil Twilight 7:07 AM NZST 5:44 PM NZST
Nautical Twilight 6:32 AM NZST 6:19 PM NZST
Astronomical Twilight 5:58 AM NZST 6:53 PM NZST
Moon 12:32 PM NZST (5/17) 11:25 PM NZST (5/17)
Length of Visible Light 10h 37m
Length of Day
9h 34m
Waxing Crescent, 38% of the Moon is Illuminated
May 17
Waxing Crescent
May 18
First Quarter
May 25
Full
Jun 1
Last Quarter
Jun 9
New

Hourly Weather History & Observations

Time (NZST) Temp. Windchill Dew Point Humidity Pressure Visibility Wind Dir Wind Speed Gust Speed Precip Events Conditions
12:00 AM 46.4 °F - 46.4 °F 100% 29.89 in 0.5 mi East 2.3 mph - N/A Fog Fog
1:00 AM 44.6 °F - 42.8 °F 93% 29.86 in 6.2 mi ENE 2.3 mph - N/A Fog Shallow Fog
2:00 AM 44.6 °F - 42.8 °F 93% 29.86 in - SE 1.2 mph - N/A   Clear
3:00 AM 44.6 °F - 42.8 °F 93% 29.83 in - NE 1.2 mph - N/A   Clear
4:00 AM 44.6 °F 41.4 °F 44.6 °F 100% 29.80 in - NNE 5.8 mph - N/A   Clear
5:00 AM 44.6 °F - 44.6 °F 100% 29.80 in - ENE 2.3 mph - N/A   Clear
6:00 AM 46.4 °F - 44.6 °F 93% 29.80 in - ESE 1.2 mph - N/A   Clear
7:00 AM 51.8 °F - 48.2 °F 88% 29.80 in - ENE 4.6 mph - N/A   Clear
8:00 AM 51.8 °F - 46.4 °F 82% 29.77 in - NNE 4.6 mph - N/A   Clear
9:00 AM 53.6 °F - 48.2 °F 82% 29.80 in - NNE 5.8 mph - N/A   Clear
10:00 AM 59.0 °F - 48.2 °F 67% 29.80 in 6.2 mi North 11.5 mph - N/A Rain Light Rain
11:00 AM 59.0 °F - 48.2 °F 67% 29.80 in - North 9.2 mph - N/A   Clear
12:00 PM 60.8 °F - 50.0 °F 68% 29.77 in - North 4.6 mph - N/A   Clear
1:00 PM 60.8 °F - 50.0 °F 68% 29.74 in - NE 8.1 mph - N/A   Clear
2:00 PM 59.0 °F - 50.0 °F 72% 29.74 in 6.2 mi North 8.1 mph - N/A   Unknown
3:00 PM 55.4 °F - 51.8 °F 88% 29.74 in 6.2 mi NNW 9.2 mph - N/A Rain Rain
4:00 PM 55.4 °F - 53.6 °F 94% 29.74 in 6.2 mi SE 4.6 mph - N/A Rain Light Rain
5:00 PM 55.4 °F - 53.6 °F 94% 29.71 in 6.2 mi SW 5.8 mph - N/A Rain Light Rain Showers
6:00 PM 55.4 °F - 53.6 °F 94% 29.71 in 6.2 mi West 5.8 mph - N/A Rain Light Rain Showers
7:00 PM 53.6 °F - 51.8 °F 94% 29.71 in 6.2 mi WSW 4.6 mph - N/A Rain Light Rain
8:00 PM 53.6 °F - 51.8 °F 94% 29.71 in 6.2 mi SSW 2.3 mph - N/A Rain Light Rain
8:40 PM 53.6 °F - 51.8 °F 94% 29.71 in 6.2 mi SSW 3.5 mph - N/A Rain Light Rain
9:00 PM 53.6 °F - 51.8 °F 94% 29.71 in 6.2 mi SW 4.6 mph - N/A Rain Light Rain
10:00 PM 53.6 °F - 51.8 °F 94% 29.71 in 6.2 mi West 3.5 mph - N/A Rain Light Rain
11:00 PM 53.6 °F - 51.8 °F 94% 29.71 in 6.2 mi SW 10.4 mph - N/A   Light Drizzle